DECAYED
Showing default

JILIN-01 GAOFEN 3D 5, 52390 (Decayed)

Orbit data source: Space-Track

JILIN-01 GAOFEN 3D 5, 52390 was a payload satellite owned by Changguang WJ (CN) in LEO that was launched on Sat, 30 Apr 2022 UTC via a CHANG ZHENG 11 launch vehicle from the Yellow Sea Launch Area, China (YSLA). Payload-class satellites include a variety of spacecraft equipped with specific instruments for various scientific and technological missions. These include communications satellites like Starlink; space stations such as the ISS; scientific satellites like the Hubble; Earth observation satellites from companies like Planet Labs, Umbra, and HawkEye 360; GPS; miniature CubeSats for education and research; and military/defense satellites.

Not visible in the next 10 days
Identifier
52390, 2022-046C
Orbit
Decayed
Country
Flag of CNCN / PRC
Related business
Manufacturer
Changguang WJ
Mission
Decayed Commercial Imaging
Bus & Motor
JL-1, Unknown motor
Mass
43 kg wet, 43 kg dry
Launch date (UTC)
2022-04-30 (4 years ago)
Launch vehicle
CHANG ZHENG 11
Launch site
Yellow Sea Launch Area, China (YSLA)
Object type
Payload
Rocket body
Debris
Shape & HBR
Box + 2 Pan, 0.8 m
Radar Cross Section
2.000 m², Medium (>0.1 m² and < 1m²)

Expand to show TLE details & history
Last TLE update: 2 months ago

TLE from 2 months ago
0 JILIN-01 GAOFEN 3D 5
1 52390U 22046C   26113.45661189  .13701840  27051-5  25569-3 0  9990
2 52390  97.4814 232.7390 0010494 226.4735 133.5697 16.46858889222066
Epoch: 2026-04-23T10:57Z
TLE epoch observation values (Epoch: 2026-04-23T10:57:31.267Z)
Latitude
0.00001°
Longitude
-143.1447°
Altitude
155.603 km
Speed
7.81 km/s
True Right ascension
15h 30m 57s
True Declination
0° 00' 00"
Sunlit
Object was in full shadow at epoch
Visualization orbit readout
Latitude
Unknown
Longitude
Unknown
Altitude
Unknown
Speed
Unknown
Apparent Right ascension
Unknown
Apparent Declination
Unknown
Sunlit
N/A
Visualization observer readout
Local Sidereal Time
00:50:23
Azimuth
Unknown
Elevation
Unknown
Doppler factor
Unknown
Orbital elements
Apogee altitude
151.267 km
Perigee altitude
137.578 km
Semi-major axis
6,522.56 km
Eccentricity
0.00105
Inclination
97.4814°
RAAN
232.739°
Arg. of periapsis
226.4735°
True anomaly
133.65675°
Mean anomaly
133.5697°
Eccentric anomaly
133.61323°
Mean motion
4.12018 °/min
Orbital period
87.37 mins
BSTAR
0.00025569
Loading maneuver chart data...
Computing Atmospheric mass density...
Loading historical data...
Loading historical data...
Loading historical data...
Loading historical data...
Loading historical data...
Loading historical data...
Loading historical data...

Documentation

Showing up to 5 results
|